Погода Кривой Рог

Погода Кривой Рог : погода сейчас, прогноз погоды и архив. Всё, что Вы хотите узнать о погоде Кривой Рог!

Поиск расширенной информации на нашем сайте:

Другие новости

Новости СМИ2

Главная страница сайта

Новости сайта

03.07.2017

Напоминаем, что на нашем специализированном сайте Метеоцентр.Азия вы можете получить высокодетализированные автоматические прогнозы погоды по пунктам России, СНГ и мира в авиационном формате (включающие направление и скорость ветра, видимость, явления погоды, количество и форму облачности, нижнюю и верхнюю границу облачности).

Рекомендуем: статья полностью

Погода Кривой Рог - сегодня

Время (UTC), дата Ветер
(°,м/с) 
Видим.   Явления Облачность Т
(°С)
Тd
(°С)
f(%) Тe
(°С)
Pmin
(гПа)
dP
(гПа)
Po
(мм)
O2
(г/м3)
Тmin Tmax R s Состояние
почвы
15 09.12.17 140 (ЮВ) 3500 м  дымка  10/10 120 м 
[St]
+6 +4.9 93 +5  1011.1  -0.5  747  294           
18 09.12.17 140 (ЮВ) 4100 м  в посл. час туман  10/10 1080 м 
[Sc]
+6.2 +5.5 95 +5  1010  -1.1  746  293    +6.2       
21 09.12.17 160 (Ю) 10 км    10/10 240 м 
[St]
+8.1 +6.6 90 +7  1008.8  -1.1  745  291           
00 10.12.17 150 (ЮВ) 10 км    6/6 570 м 
[St]
+7 +5.7 91 +5  1007.8  -1  745  292           
03 10.12.17 160 (Ю) 10 км    4/0 средняя 
[Ac trans]
+6.5 +4.7 88 +4  1006.2  -1.6  743  292           
06 10.12.17 160 (Ю) 10 км    8/8 1200 м 
[Sc]
+7.2 +5.2 87 +5  1005.2  -1  743  291  +6.2         
09 10.12.17 160 (Ю) 10 км    10/10 420 м 
[St]
+9.6 +6.9 83 +7  1003  -2  741  287           
12 10.12.17 150 (ЮВ) 10 км  слаб. ливневой дождь  10/6 600 м кучево-дожд., средняя 
[Cb calv|Ac und]
+9.9 +7.6 86 +8  999.5  -3.5  739  286           
15 10.12.17 210 (ЮЗ) 14  10 км  слаб. ливневой дождь  10/6 450 м кучево-дожд., средняя 
[Cb calv|Ac und]
+7.5 +5.5 87 +4  997.7  -1.9  737  288           
18 10.12.17 250 (З) 10  10 км  {ливн. осадки}  10/10 200 м 
[St]
+2.2 +0.3 87 -2  1000.4  2.4  739  295    +10.7     
21 10.12.17 270 (З) 15  4200 м  слаб. снег  10/9 300 м средняя 
[Frnb|As op]
-0.1 -1.2 92 -6  1006  5.4  743  300           
00 11.12.17 260 (З) 12{19}  10 км  {снег}  10/10 870 м 
[Sc]
+0.8 -2.8 77 -4  1010.6  4.6  746  300           
03 11.12.17 250 (З) 10 км    ясно 
-1.3 -3.6 84 -6  1014.2  3.4  749  304           
06 11.12.17 200 (Ю) 10 км    8/0 верхняя 
[Ci fib]
-1.7 -3.8 86 -4  1014.9  0.7  750  304  -2.4    0.0  <0.5  равномерный
сухой снег
100% 
09 11.12.17 190 (Ю) 10 км    10/4 870 м верхняя 
[Sc|Ci fib]
+2.6 -0.7 79 -1  1014.7  750  299           
12 11.12.17 200 (Ю) 10 км    10/0 средняя 
[Ac und]
+4.4 +1.3 80 +3  1014.5  -0.1  749  297           
15 11.12.17 200 (Ю) 10 км    4/0 средняя 
[Ac trans]
+4.6 +2.1 84 +2  1014.3  -0.2  749  297           
18 11.12.17 200 (Ю) 10 км    10/0 средняя 
[Ac und]
+4.6 +2.9 89 +2  1014.8  0.5  750  297           
21 11.12.17 160 (Ю) 10 км    10/0 средняя 
[Ac und]
+4.9 +2.9 87 +3  1015.3  0.5  750  296           
00 12.12.17 200 (Ю) 10 км    3/0 средняя 
[Ac trans]
+3.8 +2.3 90 +2  1014.9  -0.4  750  298           
03 12.12.17 170 (Ю) 1100 м  дымка  10/10 100 м 
[St]
+5 +4.8 99 +2  1013.8  -1  749  296           
06 12.12.17 200 (Ю) 5000 м  дымка{туман}  10/10 100 м 
[St]
+6 +5.3 95 +4  1013.9  0.1  749  294  +3.8         
09 12.12.17 210 (ЮЗ) 10 км    8/0 верхняя 
[Ci fib]
+8.3 +5.9 85 +6  1013.9  0.1  749  292           
12 12.12.17 190 (Ю) 10 км    10/0 средняя, верхняя 
[Ac trans|Ci fib]
+9.3 +7 86 +8  1013.8  749  291           
15 12.12.17 190 (Ю) 10 км    8/0 средняя 
[Ac und]
+6.1 +4.5 89 +5  1014.9  0.9  750  295           
Время (UTC), дата Ветер
(°,м/с) 
Видим.   Явления Облачность Т
(°С)
Тd
(°С)
f(%) Тe
(°С)
Pmin
(гПа)
dP
(гПа)
Po
(мм)
O2
(г/м3)
Тmin Tmax R s Состояние
почвы

Для получения пояснительной информации подведите курсор к названию столбца.

ПОГОДА Кривой Рог - архив

Всё, что Вы хотите узнать о погоде Кривой Рог - удобно и подробно!

Выберите нужную дату (начиная с 1 января 2015* года) и нажмите кнопку "Найти".
Будут отображены архивные сводки погоды по пункту Кривой Рог, начиная с указанной даты.


Отображать данные в формате CSV (для использования в таблицах Excel)


Внимание! Наш архив погоды предназначен исключительно для личного некоммерческого использования в познавательных целях. Если Вам необходимы официальные справки о состоянии погоды (для производственных, юридических, коммерческих и т.п. целей), обращайтесь в органы Росгидромета.

*Примечание: данная дата относится к архиву по метеостанциям СССР (Россия, СНГ, Балтия).
Архив по метеостанциям Зарубежной Европы и Азии (кроме Китая) хранится 10 дней, по другим регионам земного шара (Китай, Африка, Америка, Австралия, Океания) - 1 день.

Кривой Рог - район местоположения метеостанции


Название, широта, долгота, высота метеостанции:
Кривой Рог (Лозоватка) 48°ш. 33.2°д. 124 м над ур. моря [Украина]

Дополнительная информация

В oтличие oт бoльшинства пoгoдных сайтoв мы публикуем пoдрoбную метеoинфoрмацию в детальнoм прoфессиoнальнoм фoрмате.

Характеристики температуры и влажнoсти вoздуха измеряются на высoте 2 м в тени вдали oт зданий и деревьев.
Скoрoсть ветра измеряется на высoте 10 м (на урoвне рoста челoвека скoрoсть ветра ниже в 1.5-2 раза). Если метеoстанция нахoдится в гoрoде или в лесу, тo скoрoсть ветра занижена на 2-4 м/с пo сравнению с oткрытым местoм. Скoрoсть ветра над акватoриями крупных рек и oзёр, а также на вершинах хoлмoв на 2-5 м/с выше, чем в oбычных услoвиях.
Атмoсфернoе давление в разных тoчках местнoсти мoжет значительнo oтличаться oт давления на метеoстанции, в зависимoсти oт услoвий рельефа (при пoдъёме на 10 м давление пoнижается примернo на 1 мм рт.ст.).